EUTELSAT KONNECT

Last updated on Wed Sep 09 2026 00:03:02 GMT+0000 (Coordinated Universal Time)

1 45027U 20005B 26251.30398589 .00000028 00000+0 00000+0 0 9994 2 45027 0.0650 99.8081 0000933 58.2021 306.0079 1.00266859 25176
UTC large
Height (km)
Speed (km/s)
/
Latitude / Longitude
Inclination (degrees)
Orbital Period (minutes)
Azimuth
Elevation
Range (km)
Doppler Factor

Next 0 passes for location: London (51.5072 / 0.1276)

No passes found over London.
EUTELSAT KONNECT